GW1174 Weather Reports


Display with metric or nautical units.
time (UTC)temp
F
wind
direction
speed
MPH
gust
MPH
rain 1hr
in
rain 24hr
in
rain mn
in
humidity
%
barometer
mb
20260509182516 62 0.0 0.0 0.00 0.00 0.00 66 1015.7
20260509181516 63 0.0 0.0 0.00 0.00 0.00 64 1015.8
20260509180537 63 0.0 0.0 0.00 0.00 0.00 61 1015.5
20260509175517 64 0.0 0.0 0.00 0.00 0.00 61 1015.5
20260509174517 65 0.0 1.0 0.00 0.00 0.00 59 1015.6
20260509173536 65 0.0 2.0 0.00 0.00 0.00 58 1015.5
20260509172537 66 0.0 2.0 0.00 0.00 0.00 57 1015.4
20260509171516 66 68 1.0 4.0 0.00 0.00 0.00 57 1015.5
20260509170516 67 0.0 2.0 0.00 0.00 0.00 57 1015.6
20260509165519 68 0.0 2.0 0.00 0.00 0.00 55 1015.8
20260509164516 68 0.0 1.0 0.00 0.00 0.00 55 1015.8
20260509163516 67 0.0 3.0 0.00 0.00 0.00 53 1015.7
20260509162516 68 0.0 1.0 0.00 0.00 0.00 51 1015.7
20260509161516 69 0.0 2.0 0.00 0.00 0.00 52 1015.7
20260509160516 69 0.0 2.0 0.00 0.00 0.00 56 1016.0
20260509155516 69 0.0 2.0 0.00 0.00 0.00 54 1015.9
20260509154516 70 45 1.0 4.0 0.00 0.00 0.00 52 1016.0
20260509153516 71 248 1.0 4.0 0.00 0.00 0.00 52 1016.2
20260509152516 70 180 1.0 2.0 0.00 0.00 0.00 50 1016.1
20260509151516 69 0 1.0 3.0 0.00 0.00 0.00 49 1016.1
20260509150516 69 315 1.0 3.0 0.00 0.00 0.00 51 1016.2
20260509145516 69 293 2.0 7.0 0.00 0.00 0.00 54 1016.4
20260509144516 69 23 1.0 3.0 0.00 0.00 0.00 53 1016.5
20260509143516 70 248 3.0 7.0 0.00 0.00 0.00 50 1016.6
20260509142556 69 203 1.0 3.0 0.00 0.00 0.00 51 1016.6
20260509141516 69 270 2.0 4.0 0.00 0.00 0.00 52 1016.6
20260509140516 67 0.0 3.0 0.00 0.00 0.00 58 1016.7
20260509135516 67 293 1.0 2.0 0.00 0.00 0.00 55 1016.9
20260509134536 68 0.0 3.0 0.00 0.00 0.00 56 1017.0
20260509133516 67 248 1.0 4.0 0.00 0.00 0.00 55 1017.1
20260509132536 67 270 2.0 4.0 0.00 0.00 0.00 61 1017.3
20260509131516 66 270 3.0 6.0 0.00 0.00 0.00 57 1017.4
20260509130516 66 270 3.0 6.0 0.00 0.00 0.00 58 1017.7
20260509125516 65 248 3.0 6.0 0.00 0.00 0.00 58 1017.6
20260509124556 65 315 2.0 6.0 0.00 0.00 0.00 59 1017.5
20260509123516 66 338 1.0 4.0 0.00 0.00 0.00 57 1017.6
20260509122516 67 225 3.0 8.0 0.00 0.00 0.00 58 1017.9
20260509121636 65 315 1.0 3.0 0.00 0.00 0.00 60 1017.8
20260509120516 65 315 1.0 3.0 0.00 0.00 0.00 58 1018.0
20260509115516 65 293 1.0 3.0 0.00 0.00 0.00 63 1018.0
20260509114516 64 315 2.0 5.0 0.00 0.00 0.00 61 1018.1
20260509113516 67 113 1.0 4.0 0.00 0.00 0.00 64 1018.2
20260509112516 66 158 2.0 6.0 0.00 0.00 0.00 59 1018.3
20260509111516 65 0.0 2.0 0.00 0.00 0.00 60 1018.2
20260509110536 63 45 2.0 8.0 0.00 0.00 0.00 63 1018.3
20260509105516 64 0.0 2.0 0.00 0.00 0.00 62 1018.5
20260509104516 64 0.0 4.0 0.00 0.00 0.00 64 1018.6
20260509103515 64 248 3.0 6.0 0.00 0.00 0.00 65 1018.7
20260509102535 63 270 2.0 7.0 0.00 0.00 0.00 65 1018.7
20260509101518 62 158 3.0 6.0 0.00 0.00 0.00 64 1018.8
20260509100517 63 158 3.0 7.0 0.00 0.00 0.00 68 1018.8
20260509095518 62 180 3.0 6.0 0.00 0.00 0.00 67 1018.8
20260509094518 62 203 3.0 5.0 0.00 0.00 0.00 68 1019.1
20260509093517 63 158 2.0 5.0 0.00 0.00 0.00 66 1019.1
20260509092516 63 225 2.0 5.0 0.00 0.00 0.00 70 1019.0
20260509091517 62 158 2.0 5.0 0.00 0.00 0.00 70 1019.0
20260509090518 62 158 4.0 8.0 0.00 0.00 0.00 69 1019.1
20260509085517 62 180 1.0 3.0 0.00 0.00 0.00 70 1019.3
20260509084518 61 158 3.0 9.0 0.00 0.00 0.00 72 1019.2
20260509083518 60 45 1.0 4.0 0.00 0.00 0.00 75 1019.0
20260509082517 59 45 1.0 5.0 0.00 0.00 0.00 74 1019.2
20260509081517 58 68 1.0 4.0 0.00 0.00 0.00 77 1019.1
20260509080517 58 0.0 3.0 0.00 0.00 0.00 78 1019.2
20260509075517 57 23 1.0 4.0 0.00 0.00 0.00 79 1019.1
20260509074518 56 0 1.0 3.0 0.00 0.00 0.00 80 1019.0
20260509073517 56 0 1.0 4.0 0.00 0.00 0.00 84 1019.0
20260509072517 55 45 1.0 4.0 0.00 0.00 0.00 86 1019.2
20260509071517 54 45 1.0 5.0 0.00 0.00 0.00 90 1019.1
20260509070518 52 0.0 2.0 0.00 0.00 0.00 92 1019.0
20260509065517 52 0.0 1.0 0.00 0.00 0.00 93 1018.9
20260509064517 51 0.0 2.0 0.00 0.00 0.00 94 1019.1
20260509063540 50 23 1.0 5.0 0.00 0.00 0.00 94 1019.0
20260509062517 49 45 1.0 2.0 0.00 0.00 0.00 95 1018.9
20260509061517 48 0.0 3.0 0.00 0.00 0.00 94 1018.7
20260509060517 47 0.0 2.0 0.00 0.00 0.00 94 1018.7
20260509055517 45 0 1.0 2.0 0.00 0.00 0.00 94 1018.6
20260509054517 44 0.0 2.0 0.00 0.00 0.00 94 1018.5
20260509053517 44 0 1.0 2.0 0.00 0.00 0.00 94 1018.5
20260509052517 43 0.0 2.0 0.00 0.00 0.00 94 1018.3
20260509051518 42 0.0 2.0 0.00 0.00 0.00 93 1018.3
20260509050517 42 0.0 0.0 0.00 0.00 0.00 93 1018.2
20260509045517 42 0.0 1.0 0.00 0.00 0.00 93 1018.3
20260509044517 42 0.0 0.0 0.00 0.00 0.00 93 1018.3
20260509043540 42 0.0 0.0 0.00 0.00 0.00 93 1018.3
20260509042537 41 0.0 0.0 0.00 0.00 0.00 93 1018.3
20260509041517 41 0.0 0.0 0.00 0.00 0.00 93 1018.3
20260509040517 41 0.0 0.0 0.00 0.00 0.00 93 1018.3
20260509035517 41 0.0 0.0 0.00 0.00 0.00 93 1018.3
20260509034517 41 0.0 1.0 0.00 0.00 0.00 93 1018.4
20260509033517 41 0.0 0.0 0.00 0.00 0.00 93 1018.3
20260509032517 41 0.0 0.0 0.00 0.00 0.00 93 1018.4
20260509031517 41 0.0 1.0 0.00 0.00 0.00 93 1018.3
20260509030517 41 0.0 1.0 0.00 0.00 0.00 93 1018.3
20260509025556 42 0.0 2.0 0.00 0.00 0.00 93 1018.5
20260509024517 42 0.0 0.0 0.00 0.00 0.00 93 1018.3
20260509023517 42 0.0 0.0 0.00 0.00 0.00 92 1018.5
20260509022600 42 0.0 0.0 0.00 0.00 0.00 92 1018.6
20260509021516 42 0.0 2.0 0.00 0.00 0.00 92 1018.6
20260509020536 42 0.0 2.0 0.00 0.00 0.00 92 1018.3
20260509015516 42 0.0 0.0 0.00 0.00 0.00 92 1018.4
20260509014516 42 0.0 1.0 0.00 0.00 0.00 92 1018.2
20260509013516 42 0.0 0.0 0.00 0.00 0.00 92 1018.2
20260509012516 42 0.0 0.0 0.00 0.00 0.00 92 1018.2
20260509011516 42 0.0 0.0 0.00 0.00 0.00 92 1018.2
20260509010516 42 0.0 0.0 0.00 0.00 0.00 92 1018.5
20260509005557 42 0.0 0.0 0.00 0.00 0.00 92 1018.4
20260509004516 42 0.0 2.0 0.00 0.00 0.00 91 1018.6
20260509003516 42 0.0 0.0 0.00 0.00 0.00 91 1018.2
20260509002519 43 0.0 1.0 0.00 0.00 0.00 91 1018.2
20260509001516 43 0.0 2.0 0.00 0.00 0.00 91 1018.2
20260509000516 43 0.0 2.0 0.00 0.00 0.00 91 1018.3
20260508235516 43 0.0 0.0 0.00 0.00 0.00 91 1018.2
20260508234516 44 0.0 0.0 0.00 0.00 0.00 91 1018.3
20260508233516 44 0.0 0.0 0.00 0.00 0.00 91 1018.5
20260508232516 44 0.0 0.0 0.00 0.00 0.00 91 1018.4
20260508231516 44 0.0 0.0 0.00 0.00 0.00 90 1018.5
20260508230539 44 0.0 0.0 0.00 0.00 0.00 90 1018.4
20260508225516 44 0.0 1.0 0.00 0.00 0.00 90 1018.4
20260508224536 44 0.0 0.0 0.00 0.00 0.00 90 1018.5
20260508223516 44 0.0 0.0 0.00 0.00 0.00 90 1018.5
20260508222516 45 0.0 0.0 0.00 0.00 0.00 89 1018.5
20260508221516 45 0.0 1.0 0.00 0.00 0.00 89 1018.6
20260508220516 45 0.0 1.0 0.00 0.00 0.00 89 1018.5
20260508215517 45 0.0 1.0 0.00 0.00 0.00 89 1018.5
20260508214517 46 0.0 2.0 0.00 0.00 0.00 89 1018.5
20260508213517 46 0 1.0 4.0 0.00 0.00 0.00 89 1018.3
20260508212517 46 45 1.0 4.0 0.00 0.00 0.00 89 1018.3
20260508211540 46 0 2.0 4.0 0.00 0.00 0.00 88 1018.2
20260508210517 47 23 2.0 4.0 0.00 0.01 0.00 88 1018.3
20260508205517 47 0 1.0 5.0 0.00 0.01 0.00 88 1018.1
20260508204517 47 23 2.0 8.0 0.00 0.01 0.00 87 1018.2
20260508203517 47 0 1.0 5.0 0.00 0.01 0.00 87 1018.1
20260508202517 47 23 2.0 5.0 0.00 0.01 0.00 86 1017.9
20260508201517 48 23 1.0 7.0 0.00 0.01 0.00 86 1018.0
20260508200537 48 0 1.0 5.0 0.00 0.01 0.00 85 1018.0
20260508195537 48 23 1.0 3.0 0.00 0.02 0.00 85 1018.0
20260508194517 49 0 1.0 4.0 0.00 0.02 0.00 84 1017.9
20260508193517 49 0 1.0 3.0 0.00 0.02 0.00 83 1017.9
20260508192557 49 0 1.0 4.0 0.00 0.02 0.00 82 1017.8
20260508191516 50 0.0 4.0 0.00 0.02 0.00 81 1017.7
20260508190516 51 0.0 0.0 0.00 0.02 0.00 80 1017.7
20260508185537 51 0.0 1.0 0.00 0.03 0.00 79 1017.4
20260508184517 52 0.0 2.0 0.00 0.03 0.00 78 1017.1
20260508183516 53 0.0 2.0 0.00 0.03 0.00 77 1017.1